When you browse on this site, cookies collect data to enhance your experience and personalize the content and advertising you see.
Visit our Privacy Policy to learn more. By continuing to use the site, you agree to this use of cookies and data.
  • In Österreich
  • Länderverzeichnis
  • Für 7 Tage
  • Wassertemperatur
  • Satellitenkarten
  • Wetterkarte
  • News
  • Widgets
  • user-avatar
    Anmelden

    Stündliche Wetter Lublin

    Heute, 24 März, Sonntag

    Zeit Temperatur Niederschläge Wind Luftdruck Luftfeuchtigkeit
    00:00 +7°C° 0 mm 3 m/S 750 mmHg 49%
    01:00 +7°C° 0 mm 3 m/S 750 mmHg 53%
    02:00 +5°C° 0 mm 3 m/S 750 mmHg 65%
    03:00 +5°C° 0 mm 3 m/S 750 mmHg 75%
    04:00 +5°C° 0 mm 4 m/S 750 mmHg 85%
    05:00 +5°C° 0 mm 4 m/S 750 mmHg 95%
    06:00 +5°C° 0 mm 5 m/S 750 mmHg 90%
    07:00 +5°C° 0 mm 5 m/S 750 mmHg 85%
    08:00 +3°C° 0 mm 5 m/S 751 mmHg 77%
    09:00 +5°C° 0 mm 5 m/S 751 mmHg 69%
    10:00 +6°C° 0 mm 5 m/S 751 mmHg 60%
    11:00 +7°C° 0 mm 4 m/S 751 mmHg 52%
    12:00 +8°C° 0 mm 4 m/S 750 mmHg 47%
    13:00 +10°C° 0 mm 4 m/S 750 mmHg 42%
    14:00 +11°C° 0 mm 4 m/S 750 mmHg 37%
    15:00 +11°C° 0 mm 4 m/S 749 mmHg 37%
    16:00 +11°C° 0 mm 4 m/S 749 mmHg 37%
    17:00 +10°C° 0 mm 3 m/S 748 mmHg 37%
    18:00 +9°C° 0 mm 3 m/S 748 mmHg 42%
    19:00 +8°C° 0 mm 2 m/S 748 mmHg 46%
    20:00 +8°C° 0 mm 1 m/S 747 mmHg 50%
    21:00 +7°C° 0 mm 1 m/S 747 mmHg 51%
    22:00 +7°C° 0 mm 1 m/S 747 mmHg 52%
    23:00 +6°C° 0 mm 0 m/S 746 mmHg 53%

    Morgen, 25 März, Montag

    Zeit Temperatur Niederschläge Wind Luftdruck Luftfeuchtigkeit
    00:00 +6°C° 0 mm 0 m/S 746 mmHg 53%
    01:00 +6°C° 0 mm 0 m/S 745 mmHg 54%
    02:00 +5°C° 0 mm 0 m/S 745 mmHg 54%
    03:00 +6°C° 0 mm 1 m/S 744 mmHg 55%
    04:00 +6°C° 0 mm 1 m/S 744 mmHg 56%
    05:00 +6°C° 0 mm 1 m/S 743 mmHg 57%
    06:00 +6°C° 0 mm 1 m/S 743 mmHg 58%
    07:00 +6°C° 0 mm 1 m/S 743 mmHg 59%
    08:00 +5°C° 0 mm 2 m/S 743 mmHg 60%
    09:00 +7°C° 0 mm 2 m/S 742 mmHg 54%
    10:00 +8°C° 0 mm 3 m/S 742 mmHg 49%
    11:00 +9°C° 0 mm 3 m/S 742 mmHg 44%
    12:00 +9°C° 0 mm 3 m/S 741 mmHg 43%
    13:00 +10°C° 0 mm 3 m/S 741 mmHg 43%
    14:00 +10°C° 0 mm 3 m/S 741 mmHg 42%
    15:00 +9°C° 0.4 mm 3 m/S 740 mmHg 49%
    16:00 +7°C° 0.4 mm 4 m/S 740 mmHg 55%
    17:00 +7°C° 0.4 mm 4 m/S 740 mmHg 61%
    18:00 +7°C° 0 mm 3 m/S 741 mmHg 64%
    19:00 +5°C° 0 mm 3 m/S 741 mmHg 67%
    20:00 +5°C° 0 mm 2 m/S 741 mmHg 71%
    21:00 +3°C° 0 mm 3 m/S 742 mmHg 73%
    22:00 +3°C° 0 mm 3 m/S 742 mmHg 75%
    23:00 +2°C° 0 mm 3 m/S 743 mmHg 78%

    übermorgen, 26 März, Dienstag

    Zeit Temperatur Niederschläge Wind Luftdruck Luftfeuchtigkeit
    00:00 +2°C° 0 mm 3 m/S 743 mmHg 80%
    01:00 +1°C° 0 mm 3 m/S 744 mmHg 82%
    02:00 +1°C° 0 mm 3 m/S 744 mmHg 84%
    03:00 0°C° 0 mm 4 m/S 745 mmHg 87%
    04:00 -1°C° 0 mm 4 m/S 745 mmHg 90%
    05:00 -1°C° 0 mm 4 m/S 746 mmHg 93%
    06:00 -1°C° 0 mm 4 m/S 746 mmHg 91%
    07:00 -1°C° 0 mm 5 m/S 747 mmHg 89%
    08:00 -1°C° 0 mm 6 m/S 747 mmHg 86%
    09:00 -1°C° 0 mm 6 m/S 747 mmHg 79%
    10:00 +1°C° 0 mm 6 m/S 748 mmHg 72%
    11:00 +2°C° 0 mm 6 m/S 748 mmHg 65%
    12:00 +3°C° 0 mm 7 m/S 747 mmHg 59%
    13:00 +5°C° 0 mm 7 m/S 747 mmHg 53%
    14:00 +6°C° 0 mm 8 m/S 746 mmHg 47%
    15:00 +6°C° 0.1 mm 9 m/S 746 mmHg 49%
    16:00 +6°C° 0.1 mm 9 m/S 745 mmHg 50%
    17:00 +6°C° 0.1 mm 10 m/S 745 mmHg 52%
    18:00 +5°C° 0.1 mm 9 m/S 745 mmHg 56%
    19:00 +2°C° 0.1 mm 9 m/S 746 mmHg 61%
    20:00 +1°C° 0.1 mm 8 m/S 746 mmHg 65%
    21:00 0°C° 0 mm 7 m/S 747 mmHg 62%
    22:00 -1°C° 0 mm 7 m/S 748 mmHg 60%
    23:00 -2°C° 0 mm 6 m/S 749 mmHg 57%

    27 März, Mittwoch

    Zeit Temperatur Niederschläge Wind Luftdruck Luftfeuchtigkeit
    00:00 -3°C° 0 mm 6 m/S 749 mmHg 58%
    01:00 -4°C° 0 mm 5 m/S 750 mmHg 59%
    02:00 -4°C° 0 mm 5 m/S 750 mmHg 60%
    03:00 -4°C° 0 mm 5 m/S 751 mmHg 62%
    04:00 -3°C° 0 mm 4 m/S 751 mmHg 65%
    05:00 -4°C° 0 mm 4 m/S 751 mmHg 67%
    06:00 -3°C° 0 mm 4 m/S 752 mmHg 65%
    07:00 -3°C° 0 mm 4 m/S 752 mmHg 64%
    08:00 -2°C° 0 mm 4 m/S 753 mmHg 62%
    09:00 -1°C° 0 mm 4 m/S 753 mmHg 53%
    10:00 +1°C° 0 mm 4 m/S 753 mmHg 45%
    11:00 +3°C° 0 mm 3 m/S 753 mmHg 36%
    12:00 +4°C° 0 mm 4 m/S 753 mmHg 33%
    13:00 +5°C° 0 mm 4 m/S 753 mmHg 31%
    14:00 +6°C° 0 mm 4 m/S 753 mmHg 28%
    15:00 +7°C° 0 mm 3 m/S 753 mmHg 32%
    16:00 +7°C° 0 mm 3 m/S 753 mmHg 36%
    17:00 +7°C° 0 mm 3 m/S 753 mmHg 40%
    18:00 +7°C° 0 mm 2 m/S 753 mmHg 45%
    19:00 +7°C° 0 mm 1 m/S 753 mmHg 50%
    20:00 +5°C° 0 mm 0 m/S 753 mmHg 56%
    21:00 +5°C° 0 mm 0 m/S 754 mmHg 57%
    22:00 +6°C° 0 mm 1 m/S 754 mmHg 58%
    23:00 +5°C° 0 mm 2 m/S 754 mmHg 59%

    28 März, Donnerstag

    Zeit Temperatur Niederschläge Wind Luftdruck Luftfeuchtigkeit
    00:00 +6°C° 0.1 mm 1 m/S 754 mmHg 62%
    01:00 +5°C° 0.1 mm 1 m/S 754 mmHg 65%
    02:00 +5°C° 0.1 mm 1 m/S 755 mmHg 68%
    03:00 +5°C° 0 mm 1 m/S 755 mmHg 73%
    04:00 +4°C° 0 mm 1 m/S 755 mmHg 79%
    05:00 +4°C° 0 mm 1 m/S 755 mmHg 84%
    06:00 +4°C° 0 mm 1 m/S 755 mmHg 84%
    07:00 +5°C° 0 mm 1 m/S 755 mmHg 84%
    08:00 +5°C° 0 mm 1 m/S 756 mmHg 84%
    09:00 +7°C° 0 mm 1 m/S 756 mmHg 78%
    10:00 +8°C° 0 mm 1 m/S 756 mmHg 73%
    11:00 +9°C° 0 mm 1 m/S 757 mmHg 68%
    12:00 +9°C° 0 mm 1 m/S 757 mmHg 64%
    13:00 +10°C° 0 mm 1 m/S 756 mmHg 60%
    14:00 +11°C° 0 mm 1 m/S 756 mmHg 56%
    15:00 +9°C° 0 mm 2 m/S 756 mmHg 57%
    16:00 +9°C° 0 mm 2 m/S 756 mmHg 58%
    17:00 +9°C° 0 mm 2 m/S 756 mmHg 58%
    18:00 +8°C° 0 mm 2 m/S 756 mmHg 63%
    19:00 +8°C° 0 mm 1 m/S 757 mmHg 68%
    20:00 +8°C° 0 mm 1 m/S 757 mmHg 72%
    21:00 +7°C° 0 mm 1 m/S 757 mmHg 74%
    22:00 +7°C° 0 mm 1 m/S 757 mmHg 77%
    23:00 +5°C° 0 mm 0 m/S 758 mmHg 79%

    29 März, Freitag

    Zeit Temperatur Niederschläge Wind Luftdruck Luftfeuchtigkeit
    00:00 +6°C° 0 mm 1 m/S 758 mmHg 80%
    01:00 +6°C° 0 mm 1 m/S 758 mmHg 82%
    02:00 +5°C° 0 mm 1 m/S 758 mmHg 83%
    03:00 +5°C° 0 mm 1 m/S 758 mmHg 84%
    04:00 +5°C° 0 mm 1 m/S 758 mmHg 85%
    05:00 +3°C° 0 mm 2 m/S 758 mmHg 86%
    06:00 +4°C° 0 mm 2 m/S 758 mmHg 84%
    07:00 +5°C° 0 mm 2 m/S 758 mmHg 81%
    08:00 +5°C° 0 mm 2 m/S 758 mmHg 79%
    09:00 +7°C° 0 mm 2 m/S 758 mmHg 72%
    10:00 +9°C° 0 mm 3 m/S 757 mmHg 66%
    11:00 +11°C° 0 mm 3 m/S 757 mmHg 60%
    12:00 +11°C° 0 mm 3 m/S 757 mmHg 56%
    13:00 +12°C° 0 mm 3 m/S 757 mmHg 52%
    14:00 +13°C° 0 mm 3 m/S 756 mmHg 48%
    15:00 +13°C° 0 mm 3 m/S 756 mmHg 49%
    16:00 +13°C° 0 mm 3 m/S 755 mmHg 49%
    17:00 +13°C° 0 mm 3 m/S 755 mmHg 49%
    18:00 +12°C° 0 mm 3 m/S 755 mmHg 55%
    19:00 +10°C° 0 mm 2 m/S 755 mmHg 61%
    20:00 +9°C° 0 mm 2 m/S 754 mmHg 68%
    21:00 +8°C° 0 mm 2 m/S 754 mmHg 71%
    22:00 +8°C° 0 mm 2 m/S 754 mmHg 74%
    23:00 +7°C° 0 mm 2 m/S 754 mmHg 77%
    Mehr zeigen